�������C�����ː����j�^�v���󋵏��
Date,Time,Cs137(Bq/L),Cs134(Bq/L),�S��(Bq/L)
2022/04/22,00:00,ND,ND,22
2022/04/22,00:10,ND,ND,23
2022/04/22,00:20,ND,ND,24
2022/04/22,00:30,ND,ND,22
2022/04/22,00:40,ND,ND,21
2022/04/22,00:50,ND,ND,22
2022/04/22,01:00,ND,ND,23
2022/04/22,01:10,ND,ND,24
2022/04/22,01:20,ND,ND,25
2022/04/22,01:30,ND,ND,25
2022/04/22,01:40,ND,ND,26
2022/04/22,01:50,ND,ND,26
2022/04/22,02:00,ND,ND,28
2022/04/22,02:10,ND,ND,26
2022/04/22,02:20,ND,ND,28
2022/04/22,02:30,ND,ND,29
2022/04/22,02:40,ND,ND,30
2022/04/22,02:50,ND,ND,28
2022/04/22,03:00,ND,ND,26
2022/04/22,03:10,ND,ND,27
2022/04/22,03:20,ND,ND,26
2022/04/22,03:30,ND,ND,23
2022/04/22,03:40,ND,ND,23
2022/04/22,03:50,ND,ND,22
2022/04/22,04:00,ND,ND,21
2022/04/22,04:10,ND,ND,19
2022/04/22,04:20,ND,ND,18
2022/04/22,04:30,ND,ND,22
2022/04/22,04:40,ND,ND,23
2022/04/22,04:50,ND,ND,25
2022/04/22,05:00,ND,ND,27
2022/04/22,05:10,ND,ND,26
2022/04/22,05:20,ND,ND,27
2022/04/22,05:30,ND,ND,27
2022/04/22,05:40,ND,ND,27
2022/04/22,05:50,ND,ND,26
2022/04/22,06:00,ND,ND,27
2022/04/22,06:10,ND,ND,31
2022/04/22,06:20,ND,ND,31
2022/04/22,06:30,ND,ND,30
2022/04/22,06:40,ND,ND,26
2022/04/22,06:50,ND,ND,26
2022/04/22,07:00,ND,ND,28
2022/04/22,07:10,ND,ND,27
2022/04/22,07:20,ND,ND,26
2022/04/22,07:30,ND,ND,27
2022/04/22,07:40,ND,ND,29
2022/04/22,07:50,ND,ND,28
2022/04/22,08:00,ND,ND,27
2022/04/22,08:10,ND,ND,26
2022/04/22,08:20,ND,ND,25
2022/04/22,08:30,ND,ND,24
2022/04/22,08:40,ND,ND,26
2022/04/22,08:50,ND,ND,26
2022/04/22,09:00,ND,ND,26
2022/04/22,09:10,ND,ND,28
2022/04/22,09:20,ND,ND,27
2022/04/22,09:30,ND,ND,27
2022/04/22,09:40,ND,ND,28
2022/04/22,09:50,ND,ND,31
2022/04/22,10:00,ND,ND,30
2022/04/22,10:10,ND,ND,27
2022/04/22,10:20,ND,ND,30
2022/04/22,10:30,ND,ND,29
2022/04/22,10:40,ND,ND,27
2022/04/22,10:50,ND,ND,27
2022/04/22,11:00,ND,ND,27
2022/04/22,11:10,ND,ND,27
2022/04/22,11:20,ND,ND,27
2022/04/22,11:30,ND,ND,27
2022/04/22,11:40,ND,ND,27
2022/04/22,11:50,ND,ND,25
2022/04/22,12:00,ND,ND,26
2022/04/22,12:10,ND,ND,26
2022/04/22,12:20,ND,ND,27
2022/04/22,12:30,ND,ND,26
2022/04/22,12:40,ND,ND,25
2022/04/22,12:50,ND,ND,27
2022/04/22,13:00,ND,ND,28
2022/04/22,13:10,ND,ND,30
2022/04/22,13:20,ND,ND,31
2022/04/22,13:30,ND,ND,31
2022/04/22,13:40,ND,ND,32
2022/04/22,13:50,ND,ND,33
2022/04/22,14:00,ND,ND,31
2022/04/22,14:10,ND,ND,30
2022/04/22,14:20,ND,ND,28
2022/04/22,14:30,ND,ND,29
2022/04/22,14:40,ND,ND,28
2022/04/22,14:50,ND,ND,25
2022/04/22,15:00,ND,ND,24
2022/04/22,15:10,ND,ND,24
2022/04/22,15:20,ND,ND,28
2022/04/22,15:30,ND,ND,26
2022/04/22,15:40,ND,ND,26
2022/04/22,15:50,ND,ND,29
2022/04/22,16:00,ND,ND,28
2022/04/22,16:10,ND,ND,24
2022/04/22,16:20,ND,ND,22
2022/04/22,16:30,ND,ND,22
2022/04/22,16:40,ND,ND,24
2022/04/22,16:50,ND,ND,23
2022/04/22,17:00,ND,ND,26
2022/04/22,17:10,ND,ND,27
2022/04/22,17:20,ND,ND,26
2022/04/22,17:30,ND,ND,25
2022/04/22,17:40,ND,ND,24
2022/04/22,17:50,ND,ND,26
2022/04/22,18:00,ND,ND,26
2022/04/22,18:10,ND,ND,29
2022/04/22,18:20,ND,ND,29
2022/04/22,18:30,ND,ND,30
2022/04/22,18:40,ND,ND,32
2022/04/22,18:50,ND,ND,30
2022/04/22,19:00,ND,ND,30
2022/04/22,19:10,ND,ND,26
2022/04/22,19:20,ND,ND,27
2022/04/22,19:30,ND,ND,27
2022/04/22,19:40,ND,ND,23
2022/04/22,19:50,ND,ND,24
2022/04/22,20:00,ND,ND,22
2022/04/22,20:10,ND,ND,24
2022/04/22,20:20,ND,ND,23
2022/04/22,20:30,ND,ND,23
2022/04/22,20:40,ND,ND,24
2022/04/22,20:50,ND,ND,23
2022/04/22,21:00,ND,ND,26
2022/04/22,21:10,ND,ND,24
2022/04/22,21:20,ND,ND,27
2022/04/22,21:30,ND,ND,25
2022/04/22,21:40,ND,ND,24
2022/04/22,21:50,ND,ND,24
2022/04/22,22:00,ND,ND,21
2022/04/22,22:10,ND,ND,23
2022/04/22,22:20,ND,ND,22
2022/04/22,22:30,ND,ND,23
2022/04/22,22:40,ND,ND,23
2022/04/22,22:50,ND,ND,23
2022/04/22,23:00,ND,ND,27
2022/04/22,23:10,ND,ND,26
2022/04/22,23:20,ND,ND,27
2022/04/22,23:30,ND,ND,30
2022/04/22,23:40,ND,ND,29
2022/04/22,23:50,ND,ND,30
